Station Historical Data
Daily Summary for June 21, 2017 Units:  English    Metric   Both
« Previous Day
Next Day »
Daily Weekly Monthly Yearly Custom
  High: Low: Average:
Temperature: 92.5 °F 72.6 °F 82 °F
Dew Point: 69.1 °F 54.5 °F 62.3 °F
Humidity: 61 % 36 % 52 %
Wind Speed: 13.0 mph 0.0 mph 1.9 mph
Wind Gust: 15.0 mph - -
Wind:- - SSE
Pressure: 29.76 in 29.66 in -
Precipitation: 0.00 in    
Historical Graphs
 
 
Tabular Data for June 21, 2017
Time Temperature Dew Point Pressure Wind Wind Speed Wind Gust Humidity Rainfall Rate (Hourly) solar
00:03 78.2 °F 63.2 °F 29.76 in East 1.0 mph 10.0 mph 60 % 0.00 in 0.00 W/m2
00:08 78.1 °F 63.1 °F 29.76 in Calm   11.0 mph 60 % 0.00 in 0.00 W/m2
00:13 78.1 °F 63.6 °F 29.76 in ESE 7.0 mph 14.0 mph 61 % 0.00 in 0.00 W/m2
00:18 78.0 °F 63.5 °F 29.76 in ESE 8.0 mph 11.0 mph 61 % 0.00 in 0.00 W/m2
00:23 77.9 °F 63.4 °F 29.76 in Calm   13.0 mph 61 % 0.00 in 0.00 W/m2
00:28 77.9 °F 62.9 °F 29.76 in Calm   12.0 mph 60 % 0.00 in 0.00 W/m2
00:33 77.8 °F 62.8 °F 29.76 in Calm   9.0 mph 60 % 0.00 in 0.00 W/m2
00:38 77.8 °F 62.8 °F 29.76 in East 2.0 mph 14.0 mph 60 % 0.00 in 0.00 W/m2
00:43 77.7 °F 62.7 °F 29.76 in East 6.0 mph 15.0 mph 60 % 0.00 in 0.00 W/m2
00:48 77.7 °F 62.7 °F 29.76 in Calm   12.0 mph 60 % 0.00 in 0.00 W/m2
00:53 77.6 °F 62.2 °F 29.76 in ESE 1.0 mph 12.0 mph 59 % 0.00 in 0.00 W/m2
00:58 77.6 °F 62.2 °F 29.76 in ESE 9.0 mph 15.0 mph 59 % 0.00 in 0.00 W/m2
01:04 77.6 °F 62.2 °F 29.75 in East 7.0 mph 12.0 mph 59 % 0.00 in 0.00 W/m2
01:09 77.6 °F 62.2 °F 29.75 in East 4.0 mph 11.0 mph 59 % 0.00 in 0.00 W/m2
01:14 77.5 °F 62.1 °F 29.75 in ESE 4.0 mph 13.0 mph 59 % 0.00 in 0.00 W/m2
01:19 77.5 °F 62.1 °F 29.75 in East 1.0 mph 12.0 mph 59 % 0.00 in 0.00 W/m2
01:24 77.5 °F 62.1 °F 29.75 in ESE 8.0 mph 9.0 mph 59 % 0.00 in 0.00 W/m2
01:29 77.4 °F 62.0 °F 29.75 in East 2.0 mph 11.0 mph 59 % 0.00 in 0.00 W/m2
01:34 77.4 °F 62.0 °F 29.74 in ESE 2.0 mph 13.0 mph 59 % 0.00 in 0.00 W/m2
01:39 77.4 °F 62.0 °F 29.75 in East 5.0 mph 11.0 mph 59 % 0.00 in 0.00 W/m2
01:44 77.3 °F 61.4 °F 29.74 in East 5.0 mph 12.0 mph 58 % 0.00 in 0.00 W/m2
01:49 77.3 °F 61.9 °F 29.74 in East 8.0 mph 11.0 mph 59 % 0.00 in 0.00 W/m2
01:54 77.3 °F 61.4 °F 29.74 in ESE 4.0 mph 10.0 mph 58 % 0.00 in 0.00 W/m2
01:59 77.2 °F 61.8 °F 29.74 in Calm   11.0 mph 59 % 0.00 in 0.00 W/m2
02:04 77.1 °F 61.2 °F 29.74 in Calm   9.0 mph 58 % 0.00 in 0.00 W/m2
02:09 77.1 °F 61.2 °F 29.74 in ENE 1.0 mph 10.0 mph 58 % 0.00 in 0.00 W/m2
02:14 77.0 °F 61.1 °F 29.74 in East 5.0 mph 12.0 mph 58 % 0.00 in 0.00 W/m2
02:19 77.0 °F 61.1 °F 29.74 in Calm   12.0 mph 58 % 0.00 in 0.00 W/m2
02:24 76.9 °F 61.0 °F 29.74 in Calm   12.0 mph 58 % 0.00 in 0.00 W/m2
02:29 76.9 °F 60.5 °F 29.74 in Calm   11.0 mph 57 % 0.00 in 0.00 W/m2
02:34 76.9 °F 60.5 °F 29.74 in ESE 8.0 mph 12.0 mph 57 % 0.00 in 0.00 W/m2
02:39 76.9 °F 61.0 °F 29.73 in East 5.0 mph 13.0 mph 58 % 0.00 in 0.00 W/m2
02:44 76.8 °F 60.9 °F 29.73 in East 7.0 mph 11.0 mph 58 % 0.00 in 0.00 W/m2
02:49 76.8 °F 60.9 °F 29.73 in East 11.0 mph 11.0 mph 58 % 0.00 in 0.00 W/m2
02:54 76.7 °F 61.3 °F 29.73 in Calm   11.0 mph 59 % 0.00 in 0.00 W/m2
02:59 76.7 °F 61.3 °F 29.73 in ESE 2.0 mph 14.0 mph 59 % 0.00 in 0.00 W/m2
03:04 76.6 °F 61.2 °F 29.73 in ESE 1.0 mph 14.0 mph 59 % 0.00 in 0.00 W/m2
03:09 76.5 °F 61.1 °F 29.73 in ESE 2.0 mph 9.0 mph 59 % 0.00 in 0.00 W/m2
03:14 76.4 °F 61.0 °F 29.73 in Calm   13.0 mph 59 % 0.00 in 0.00 W/m2
03:20 76.3 °F 60.5 °F 29.73 in ESE 5.0 mph 11.0 mph 58 % 0.00 in 0.00 W/m2
03:22 76.2 °F 60.4 °F 29.73 in ESE 9.0 mph 9.0 mph 58 % 0.00 in 0.00 W/m2
03:27 76.1 °F 60.3 °F 29.73 in East 6.0 mph 13.0 mph 58 % 0.00 in 0.00 W/m2
03:32 75.9 °F 59.6 °F 29.73 in East 6.0 mph 12.0 mph 57 % 0.00 in 0.00 W/m2
03:37 75.8 °F 59.0 °F 29.73 in ESE 1.0 mph 11.0 mph 56 % 0.00 in 0.00 W/m2
03:42 75.7 °F 58.9 °F 29.73 in ESE 4.0 mph 9.0 mph 56 % 0.00 in 0.00 W/m2
03:47 75.6 °F 58.8 °F 29.73 in Calm   11.0 mph 56 % 0.00 in 0.00 W/m2
03:52 75.6 °F 58.8 °F 29.73 in East 13.0 mph 13.0 mph 56 % 0.00 in 0.00 W/m2
03:57 75.5 °F 58.7 °F 29.73 in East 7.0 mph 9.0 mph 56 % 0.00 in 0.00 W/m2
04:02 75.5 °F 58.7 °F 29.73 in Calm   8.0 mph 56 % 0.00 in 0.00 W/m2
04:07 75.5 °F 58.7 °F 29.73 in Calm   6.0 mph 56 % 0.00 in 0.00 W/m2
04:12 75.4 °F 58.6 °F 29.73 in ESE 2.0 mph 11.0 mph 56 % 0.00 in 0.00 W/m2
04:17 75.3 °F 58.5 °F 29.73 in East 2.0 mph 7.0 mph 56 % 0.00 in 0.00 W/m2
04:22 75.2 °F 58.4 °F 29.73 in East 4.0 mph 11.0 mph 56 % 0.00 in 0.00 W/m2
04:27 75.1 °F 58.3 °F 29.73 in East 4.0 mph 9.0 mph 56 % 0.00 in 0.00 W/m2
04:32 75.0 °F 58.3 °F 29.73 in East 5.0 mph 13.0 mph 56 % 0.00 in 0.00 W/m2
04:37 74.9 °F 57.7 °F 29.73 in East 1.0 mph 7.0 mph 55 % 0.00 in 0.00 W/m2
04:38 74.9 °F 57.7 °F 29.73 in ESE 9.0 mph 9.0 mph 55 % 0.00 in 0.00 W/m2
04:43 74.8 °F 58.1 °F 29.73 in Calm   9.0 mph 56 % 0.00 in 0.00 W/m2
04:48 74.7 °F 57.5 °F 29.73 in ESE 5.0 mph 9.0 mph 55 % 0.00 in 0.00 W/m2
04:53 74.6 °F 56.9 °F 29.73 in Calm   8.0 mph 54 % 0.00 in 0.00 W/m2
04:58 74.6 °F 56.9 °F 29.73 in ESE 2.0 mph 11.0 mph 54 % 0.00 in 0.00 W/m2
05:03 74.4 °F 56.7 °F 29.73 in East 6.0 mph 6.0 mph 54 % 0.00 in 0.00 W/m2
05:08 74.4 °F 56.2 °F 29.72 in East 1.0 mph 9.0 mph 53 % 0.00 in 0.00 W/m2
05:13 74.3 °F 56.1 °F 29.73 in East 8.0 mph 9.0 mph 53 % 0.00 in 0.00 W/m2
05:18 74.3 °F 56.6 °F 29.72 in Calm   12.0 mph 54 % 0.00 in 0.00 W/m2
05:23 74.2 °F 56.5 °F 29.73 in Calm   9.0 mph 54 % 0.00 in 0.00 W/m2
05:28 74.2 °F 56.0 °F 29.73 in ESE 7.0 mph 9.0 mph 53 % 0.00 in 0.00 W/m2
05:33 74.1 °F 55.9 °F 29.73 in Calm   11.0 mph 53 % 0.00 in 0.00 W/m2
05:38 74.0 °F 55.8 °F 29.73 in Calm   5.0 mph 53 % 0.00 in 5.00 W/m2
05:43 74.0 °F 55.8 °F 29.73 in ESE 4.0 mph 13.0 mph 53 % 0.00 in 7.00 W/m2
05:45 74.0 °F 55.8 °F 29.73 in Calm   13.0 mph 53 % 0.00 in 7.00 W/m2
05:49 73.9 °F 55.7 °F 29.73 in ESE 8.0 mph 11.0 mph 53 % 0.00 in 11.00 W/m2
05:54 73.8 °F 55.6 °F 29.73 in East 6.0 mph 12.0 mph 53 % 0.00 in 12.00 W/m2
05:59 73.7 °F 55.0 °F 29.73 in East 5.0 mph 11.0 mph 52 % 0.00 in 16.00 W/m2
06:04 73.6 °F 54.9 °F 29.73 in East 5.0 mph 11.0 mph 52 % 0.00 in 19.00 W/m2
06:09 73.5 °F 54.8 °F 29.73 in East 5.0 mph 11.0 mph 52 % 0.00 in 21.00 W/m2
06:14 73.4 °F 54.7 °F 29.73 in Calm   14.0 mph 52 % 0.00 in 26.00 W/m2
06:20 73.3 °F 54.6 °F 29.73 in East 5.0 mph 9.0 mph 52 % 0.00 in 39.00 W/m2
06:25 73.2 °F 54.5 °F 29.73 in East 1.0 mph 12.0 mph 52 % 0.00 in 47.00 W/m2
06:30 73.1 °F 54.5 °F 29.73 in ESE 7.0 mph 8.0 mph 52 % 0.00 in 60.00 W/m2
06:35 73.1 °F 54.5 °F 29.73 in Calm   11.0 mph 52 % 0.00 in 74.00 W/m2
06:40 73.0 °F 54.9 °F 29.73 in East 4.0 mph 8.0 mph 53 % 0.00 in 86.00 W/m2
06:45 73.0 °F 54.9 °F 29.73 in Calm   9.0 mph 53 % 0.00 in 98.00 W/m2
06:50 72.9 °F 55.3 °F 29.73 in East 6.0 mph 12.0 mph 54 % 0.00 in 114.00 W/m2
06:55 72.8 °F 55.2 °F 29.73 in ESE 5.0 mph 9.0 mph 54 % 0.00 in 132.00 W/m2
07:00 72.7 °F 55.1 °F 29.73 in Calm   14.0 mph 54 % 0.00 in 153.00 W/m2
07:05 72.7 °F 55.1 °F 29.73 in ESE 6.0 mph 9.0 mph 54 % 0.00 in 171.00 W/m2
07:10 72.6 °F 54.5 °F 29.73 in East 9.0 mph 11.0 mph 53 % 0.00 in 192.00 W/m2
07:15 72.6 °F 55.0 °F 29.73 in East 6.0 mph 9.0 mph 54 % 0.00 in 209.00 W/m2
07:20 72.6 °F 55.0 °F 29.73 in East 1.0 mph 8.0 mph 54 % 0.00 in 225.00 W/m2
07:25 72.6 °F 55.5 °F 29.73 in Calm   8.0 mph 55 % 0.00 in 243.00 W/m2
07:30 72.6 °F 55.5 °F 29.73 in ESE 9.0 mph 11.0 mph 55 % 0.00 in 262.00 W/m2
07:35 72.7 °F 55.6 °F 29.73 in ESE 5.0 mph 11.0 mph 55 % 0.00 in 274.00 W/m2
07:40 72.8 °F 56.2 °F 29.73 in East 2.0 mph 11.0 mph 56 % 0.00 in 294.00 W/m2
07:45 72.8 °F 56.2 °F 29.74 in ESE 7.0 mph 11.0 mph 56 % 0.00 in 309.00 W/m2
07:50 72.9 °F 55.8 °F 29.74 in ESE 5.0 mph 11.0 mph 55 % 0.00 in 327.00 W/m2
07:55 73.0 °F 56.4 °F 29.73 in ESE 12.0 mph 12.0 mph 56 % 0.00 in 341.00 W/m2
08:01 73.1 °F 56.5 °F 29.73 in East 6.0 mph 11.0 mph 56 % 0.00 in 357.00 W/m2
08:06 73.2 °F 56.6 °F 29.73 in ESE 2.0 mph 11.0 mph 56 % 0.00 in 371.00 W/m2
08:11 73.4 °F 56.8 °F 29.73 in ESE 2.0 mph 11.0 mph 56 % 0.00 in 392.00 W/m2
08:16 73.5 °F 57.3 °F 29.73 in ESE 8.0 mph 9.0 mph 57 % 0.00 in 401.00 W/m2
08:21 73.8 °F 57.1 °F 29.73 in East 6.0 mph 13.0 mph 56 % 0.00 in 422.00 W/m2
08:26 74.0 °F 56.8 °F 29.73 in ESE 2.0 mph 13.0 mph 55 % 0.00 in 441.00 W/m2
08:31 74.2 °F 57.5 °F 29.73 in ESE 2.0 mph 12.0 mph 56 % 0.00 in 452.00 W/m2
08:36 74.5 °F 57.8 °F 29.74 in ESE 7.0 mph 11.0 mph 56 % 0.00 in 466.00 W/m2
08:41 74.7 °F 58.0 °F 29.74 in Calm   11.0 mph 56 % 0.00 in 483.00 W/m2
08:46 75.0 °F 58.3 °F 29.74 in East 4.0 mph 7.0 mph 56 % 0.00 in 499.00 W/m2
08:50 75.3 °F 58.0 °F 29.74 in East 1.0 mph 9.0 mph 55 % 0.00 in 512.00 W/m2
08:56 75.6 °F 58.3 °F 29.74 in Calm   7.0 mph 55 % 0.00 in 527.00 W/m2
09:01 75.8 °F 58.5 °F 29.74 in Calm   7.0 mph 55 % 0.00 in 543.00 W/m2
09:06 76.2 °F 59.4 °F 29.74 in Calm   7.0 mph 56 % 0.00 in 555.00 W/m2
09:11 76.5 °F 59.7 °F 29.74 in Calm   5.0 mph 56 % 0.00 in 570.00 W/m2
09:16 77.0 °F 60.6 °F 29.74 in Calm   2.0 mph 57 % 0.00 in 585.00 W/m2
09:21 77.4 °F 60.5 °F 29.74 in Calm   2.0 mph 56 % 0.00 in 599.00 W/m2
09:26 77.7 °F 60.8 °F 29.74 in Calm   4.0 mph 56 % 0.00 in 613.00 W/m2
09:31 78.1 °F 62.1 °F 29.73 in Calm     58 % 0.00 in 628.00 W/m2
09:36 78.6 °F 62.6 °F 29.73 in Calm   4.0 mph 58 % 0.00 in 642.00 W/m2
09:41 79.2 °F 63.2 °F 29.73 in Calm   1.0 mph 58 % 0.00 in 654.00 W/m2
09:46 79.6 °F 63.5 °F 29.73 in Calm   1.0 mph 58 % 0.00 in 668.00 W/m2
09:51 79.8 °F 63.2 °F 29.73 in Calm   1.0 mph 57 % 0.00 in 682.00 W/m2
09:56 80.1 °F 62.5 °F 29.73 in Calm     55 % 0.00 in 696.00 W/m2
10:01 80.4 °F 62.2 °F 29.73 in Calm     54 % 0.00 in 710.00 W/m2
10:06 80.9 °F 61.1 °F 29.73 in Calm     51 % 0.00 in 722.00 W/m2
10:11 81.6 °F 64.4 °F 29.73 in Calm   2.0 mph 56 % 0.00 in 735.00 W/m2
10:16 82.3 °F 65.1 °F 29.73 in Calm   4.0 mph 56 % 0.00 in 744.00 W/m2
10:21 82.7 °F 65.4 °F 29.73 in Calm     56 % 0.00 in 752.00 W/m2
10:26 83.1 °F 65.8 °F 29.73 in East 4.0 mph 4.0 mph 56 % 0.00 in 765.00 W/m2
10:31 83.5 °F 65.1 °F 29.73 in Calm     54 % 0.00 in 775.00 W/m2
10:36 83.7 °F 64.2 °F 29.73 in Calm     52 % 0.00 in 788.00 W/m2
10:41 83.8 °F 63.8 °F 29.73 in Calm     51 % 0.00 in 796.00 W/m2
10:46 84.0 °F 63.9 °F 29.73 in Calm     51 % 0.00 in 807.00 W/m2
10:51 84.1 °F 64.0 °F 29.73 in Calm     51 % 0.00 in 816.00 W/m2
10:56 84.3 °F 63.7 °F 29.73 in Calm     50 % 0.00 in 824.00 W/m2
11:01 84.4 °F 63.2 °F 29.73 in Calm     49 % 0.00 in 835.00 W/m2
11:06 84.5 °F 62.7 °F 29.73 in Calm     48 % 0.00 in 842.00 W/m2
11:11 84.7 °F 63.5 °F 29.73 in Calm     49 % 0.00 in 851.00 W/m2
11:16 84.9 °F 63.6 °F 29.73 in Calm   1.0 mph 49 % 0.00 in 860.00 W/m2
11:21 85.1 °F 63.8 °F 29.73 in Calm     49 % 0.00 in 865.00 W/m2
11:26 85.3 °F 63.4 °F 29.73 in Calm     48 % 0.00 in 874.00 W/m2
11:31 85.5 °F 63.6 °F 29.73 in Calm     48 % 0.00 in 877.00 W/m2
11:36 85.7 °F 63.8 °F 29.73 in Calm     48 % 0.00 in 886.00 W/m2
11:41 85.9 °F 63.3 °F 29.73 in Calm     47 % 0.00 in 891.00 W/m2
11:46 86.2 °F 62.4 °F 29.73 in Calm     45 % 0.00 in 896.00 W/m2
11:51 86.4 °F 63.2 °F 29.73 in Calm     46 % 0.00 in 900.00 W/m2
11:56 86.7 °F 62.8 °F 29.73 in NW 3.0 mph 4.0 mph 45 % 0.00 in 905.00 W/m2
12:01 87.0 °F 65.0 °F 29.73 in Calm     48 % 0.00 in 909.00 W/m2
12:06 87.3 °F 63.4 °F 29.73 in Calm     45 % 0.00 in 916.00 W/m2
12:11 87.6 °F 63.0 °F 29.73 in Calm   1.0 mph 44 % 0.00 in 918.00 W/m2
12:16 87.9 °F 63.9 °F 29.72 in Calm     45 % 0.00 in 918.00 W/m2
12:22 88.2 °F 64.2 °F 29.72 in Calm     45 % 0.00 in 925.00 W/m2
12:27 88.4 °F 64.4 °F 29.72 in Calm     45 % 0.00 in 925.00 W/m2
12:32 88.6 °F 63.3 °F 29.72 in Calm     43 % 0.00 in 930.00 W/m2
12:33 88.7 °F 63.3 °F 29.72 in Calm     43 % 0.00 in 928.00 W/m2
12:38 89.0 °F 64.3 °F 29.72 in NW 2.0 mph 4.0 mph 44 % 0.00 in 928.00 W/m2
12:43 89.2 °F 65.1 °F 29.72 in Calm   1.0 mph 45 % 0.00 in 928.00 W/m2
12:44 89.2 °F 65.1 °F 29.72 in Calm   1.0 mph 45 % 0.00 in 925.00 W/m2
12:49 89.5 °F 65.4 °F 29.72 in Calm     45 % 0.00 in 928.00 W/m2
12:54 89.7 °F 66.2 °F 29.72 in West 2.0 mph 4.0 mph 46 % 0.00 in 926.00 W/m2
12:59 89.9 °F 65.7 °F 29.72 in WNW 2.0 mph 5.0 mph 45 % 0.00 in 930.00 W/m2
13:04 90.1 °F 67.2 °F 29.72 in WNW 4.0 mph 5.0 mph 47 % 0.00 in 932.00 W/m2
13:09 90.4 °F 66.2 °F 29.71 in NW 3.0 mph 5.0 mph 45 % 0.00 in 926.00 W/m2
13:14 90.7 °F 67.1 °F 29.71 in WSW 2.0 mph 4.0 mph 46 % 0.00 in 923.00 W/m2
13:19 91.0 °F 68.6 °F 29.71 in West 3.0 mph 8.0 mph 48 % 0.00 in 923.00 W/m2
13:24 91.0 °F 66.7 °F 29.71 in Calm   7.0 mph 45 % 0.00 in 919.00 W/m2
13:29 91.0 °F 67.4 °F 29.71 in WNW 3.0 mph 4.0 mph 46 % 0.00 in 923.00 W/m2
13:34 91.0 °F 67.4 °F 29.71 in Calm   6.0 mph 46 % 0.00 in 918.00 W/m2
13:39 91.0 °F 64.7 °F 29.71 in NNW 4.0 mph 9.0 mph 42 % 0.00 in 919.00 W/m2
13:44 90.9 °F 66.0 °F 29.71 in Calm   7.0 mph 44 % 0.00 in 912.00 W/m2
13:49 91.0 °F 65.4 °F 29.71 in Calm   6.0 mph 43 % 0.00 in 912.00 W/m2
13:54 91.1 °F 64.8 °F 29.71 in WNW 1.0 mph 6.0 mph 42 % 0.00 in 907.00 W/m2
14:00 91.3 °F 64.3 °F 29.71 in Calm   3.0 mph 41 % 0.00 in 904.00 W/m2
14:05 91.4 °F 65.1 °F 29.70 in WNW 3.0 mph 5.0 mph 42 % 0.00 in 896.00 W/m2
14:10 91.5 °F 66.5 °F 29.70 in WNW 3.0 mph 3.0 mph 44 % 0.00 in 893.00 W/m2
14:15 91.6 °F 66.0 °F 29.70 in West 5.0 mph 8.0 mph 43 % 0.00 in 889.00 W/m2
14:20 91.7 °F 64.7 °F 29.70 in WSW 2.0 mph 6.0 mph 41 % 0.00 in 888.00 W/m2
14:25 91.9 °F 65.6 °F 29.70 in West 1.0 mph 5.0 mph 42 % 0.00 in 875.00 W/m2
14:30 91.9 °F 64.9 °F 29.70 in NW 7.0 mph 10.0 mph 41 % 0.00 in 868.00 W/m2
14:35 91.8 °F 64.8 °F 29.70 in SW 4.0 mph 7.0 mph 41 % 0.00 in 863.00 W/m2
14:40 91.9 °F 64.9 °F 29.70 in West 4.0 mph 6.0 mph 41 % 0.00 in 851.00 W/m2
14:45 92.1 °F 63.6 °F 29.69 in Calm   3.0 mph 39 % 0.00 in 842.00 W/m2
14:50 92.1 °F 64.3 °F 29.69 in Calm   5.0 mph 40 % 0.00 in 835.00 W/m2
14:55 92.1 °F 62.9 °F 29.69 in Calm   5.0 mph 38 % 0.00 in 831.00 W/m2
15:00 92.2 °F 63.7 °F 29.69 in West 5.0 mph 7.0 mph 39 % 0.00 in 823.00 W/m2
15:05 92.3 °F 63.0 °F 29.69 in Calm   9.0 mph 38 % 0.00 in 817.00 W/m2
15:10 92.5 °F 61.7 °F 29.69 in Calm   4.0 mph 36 % 0.00 in 800.00 W/m2
15:15 92.5 °F 63.2 °F 29.69 in WNW 6.0 mph 6.0 mph 38 % 0.00 in 796.00 W/m2
15:20 92.4 °F 61.6 °F 29.69 in WSW 3.0 mph 5.0 mph 36 % 0.00 in 784.00 W/m2
15:25 92.2 °F 62.2 °F 29.69 in Calm   6.0 mph 37 % 0.00 in 773.00 W/m2
15:30 92.0 °F 62.0 °F 29.69 in NW 6.0 mph 6.0 mph 37 % 0.00 in 765.00 W/m2
15:35 91.9 °F 62.7 °F 29.69 in WSW 2.0 mph 8.0 mph 38 % 0.00 in 754.00 W/m2
15:40 91.9 °F 64.2 °F 29.68 in NW 1.0 mph 6.0 mph 40 % 0.00 in 744.00 W/m2
15:45 91.8 °F 62.6 °F 29.68 in Calm   4.0 mph 38 % 0.00 in 726.00 W/m2
15:50 91.8 °F 63.3 °F 29.68 in Calm   6.0 mph 39 % 0.00 in 721.00 W/m2
15:56 91.8 °F 61.8 °F 29.68 in Calm   2.0 mph 37 % 0.00 in 707.00 W/m2
16:01 91.7 °F 61.8 °F 29.68 in Calm   1.0 mph 37 % 0.00 in 698.00 W/m2
16:06 91.6 °F 62.4 °F 29.68 in WSW 1.0 mph 3.0 mph 38 % 0.00 in 682.00 W/m2
16:11 91.6 °F 61.7 °F 29.67 in Calm   1.0 mph 37 % 0.00 in 673.00 W/m2
16:16 91.6 °F 62.4 °F 29.67 in Calm   1.0 mph 38 % 0.00 in 659.00 W/m2
16:21 91.6 °F 63.2 °F 29.67 in Calm   3.0 mph 39 % 0.00 in 647.00 W/m2
16:26 91.5 °F 60.8 °F 29.67 in West 1.0 mph 6.0 mph 36 % 0.00 in 635.00 W/m2
16:31 91.5 °F 62.3 °F 29.67 in WNW 2.0 mph 8.0 mph 38 % 0.00 in 624.00 W/m2
16:36 91.5 °F 63.1 °F 29.67 in Calm   3.0 mph 39 % 0.00 in 610.00 W/m2
16:41 91.5 °F 63.1 °F 29.67 in Calm   3.0 mph 39 % 0.00 in 596.00 W/m2
16:46 91.4 °F 62.2 °F 29.67 in Calm   6.0 mph 38 % 0.00 in 580.00 W/m2
16:51 91.4 °F 63.0 °F 29.67 in Calm   2.0 mph 39 % 0.00 in 564.00 W/m2
16:56 91.3 °F 62.9 °F 29.67 in West 2.0 mph 5.0 mph 39 % 0.00 in 550.00 W/m2
17:01 91.3 °F 62.9 °F 29.67 in Calm   6.0 mph 39 % 0.00 in 536.00 W/m2
17:06 91.4 °F 64.4 °F 29.67 in Calm   1.0 mph 41 % 0.00 in 522.00 W/m2
17:11 91.3 °F 63.6 °F 29.67 in Calm     40 % 0.00 in 508.00 W/m2
17:16 91.2 °F 64.2 °F 29.67 in Calm   3.0 mph 41 % 0.00 in 492.00 W/m2
17:21 91.1 °F 64.1 °F 29.67 in West 3.0 mph 3.0 mph 41 % 0.00 in 476.00 W/m2
17:26 91.1 °F 63.4 °F 29.67 in WSW 1.0 mph 2.0 mph 40 % 0.00 in 462.00 W/m2
17:31 91.0 °F 64.7 °F 29.67 in Calm     42 % 0.00 in 448.00 W/m2
17:36 90.9 °F 64.0 °F 29.67 in Calm     41 % 0.00 in 432.00 W/m2
17:41 90.8 °F 63.9 °F 29.67 in Calm     41 % 0.00 in 415.00 W/m2
17:46 90.6 °F 65.1 °F 29.67 in Calm     43 % 0.00 in 403.00 W/m2
17:51 90.5 °F 64.3 °F 29.67 in Calm     42 % 0.00 in 387.00 W/m2
17:56 90.4 °F 65.5 °F 29.67 in Calm     44 % 0.00 in 373.00 W/m2
18:01 90.2 °F 64.7 °F 29.67 in Calm     43 % 0.00 in 355.00 W/m2
18:06 90.1 °F 65.3 °F 29.67 in Calm     44 % 0.00 in 343.00 W/m2
18:11 90.0 °F 66.5 °F 29.66 in Calm     46 % 0.00 in 325.00 W/m2
18:16 89.9 °F 66.4 °F 29.66 in Calm     46 % 0.00 in 311.00 W/m2
18:21 89.8 °F 66.3 °F 29.66 in Calm     46 % 0.00 in 294.00 W/m2
18:26 89.6 °F 66.1 °F 29.66 in Calm     46 % 0.00 in 279.00 W/m2
18:31 89.5 °F 66.6 °F 29.66 in Calm     47 % 0.00 in 267.00 W/m2
18:36 89.2 °F 66.3 °F 29.67 in Calm     47 % 0.00 in 251.00 W/m2
18:41 89.1 °F 67.5 °F 29.67 in Calm     49 % 0.00 in 237.00 W/m2
18:46 88.8 °F 67.8 °F 29.67 in Calm     50 % 0.00 in 221.00 W/m2
18:51 88.5 °F 68.1 °F 29.67 in Calm     51 % 0.00 in 206.00 W/m2
18:56 88.1 °F 67.1 °F 29.67 in Calm     50 % 0.00 in 190.00 W/m2
19:01 87.8 °F 67.4 °F 29.67 in Calm     51 % 0.00 in 176.00 W/m2
19:06 87.5 °F 68.3 °F 29.67 in Calm     53 % 0.00 in 162.00 W/m2
19:11 87.2 °F 69.1 °F 29.67 in Calm     55 % 0.00 in 144.00 W/m2
19:16 86.7 °F 67.5 °F 29.67 in Calm     53 % 0.00 in 132.00 W/m2
19:21 86.3 °F 68.8 °F 29.67 in Calm     56 % 0.00 in 116.00 W/m2
19:26 86.0 °F 68.0 °F 29.67 in Calm     55 % 0.00 in 102.00 W/m2
19:31 85.8 °F 68.8 °F 29.67 in Calm     57 % 0.00 in 88.00 W/m2
19:36 85.6 °F 68.6 °F 29.68 in Calm     57 % 0.00 in 74.00 W/m2
19:41 85.3 °F 68.3 °F 29.68 in Calm     57 % 0.00 in 62.00 W/m2
19:46 85.1 °F 68.2 °F 29.68 in Calm     57 % 0.00 in 53.00 W/m2
19:51 84.7 °F 67.8 °F 29.69 in Calm     57 % 0.00 in 42.00 W/m2
19:57 84.3 °F 67.9 °F 29.69 in Calm     58 % 0.00 in 35.00 W/m2
20:02 83.9 °F 67.1 °F 29.69 in Calm     57 % 0.00 in 30.00 W/m2
20:07 83.3 °F 66.5 °F 29.68 in Calm     57 % 0.00 in 25.00 W/m2
20:12 82.9 °F 66.6 °F 29.68 in Calm     58 % 0.00 in 19.00 W/m2
20:17 82.6 °F 65.8 °F 29.68 in Calm     57 % 0.00 in 16.00 W/m2
20:20 82.4 °F 65.7 °F 29.68 in Calm     57 % 0.00 in 14.00 W/m2
20:25 82.2 °F 65.5 °F 29.67 in Calm   1.0 mph 57 % 0.00 in 11.00 W/m2
20:30 82.0 °F 64.8 °F 29.67 in Calm   4.0 mph 56 % 0.00 in 7.00 W/m2
20:35 81.9 °F 64.7 °F 29.67 in NW 7.0 mph 8.0 mph 56 % 0.00 in 5.00 W/m2
20:40 81.8 °F 64.1 °F 29.67 in NW 1.0 mph 6.0 mph 55 % 0.00 in 0.00 W/m2
20:45 81.6 °F 63.4 °F 29.67 in Calm   1.0 mph 54 % 0.00 in 0.00 W/m2
20:50 81.5 °F 63.8 °F 29.67 in NNW 2.0 mph 2.0 mph 55 % 0.00 in 0.00 W/m2
20:55 81.5 °F 63.8 °F 29.67 in North 2.0 mph 8.0 mph 55 % 0.00 in 0.00 W/m2
21:00 81.4 °F 63.7 °F 29.67 in North 2.0 mph 7.0 mph 55 % 0.00 in 0.00 W/m2
21:02 81.4 °F 63.7 °F 29.67 in Calm   5.0 mph 55 % 0.00 in 0.00 W/m2
21:07 81.4 °F 63.7 °F 29.67 in Calm   5.0 mph 55 % 0.00 in 0.00 W/m2
21:12 81.4 °F 64.2 °F 29.67 in North 2.0 mph 7.0 mph 56 % 0.00 in 0.00 W/m2
21:17 81.4 °F 64.7 °F 29.67 in North 2.0 mph 6.0 mph 57 % 0.00 in 0.00 W/m2
21:22 81.4 °F 65.2 °F 29.67 in North 6.0 mph 6.0 mph 58 % 0.00 in 0.00 W/m2
21:27 81.4 °F 65.2 °F 29.67 in Calm   2.0 mph 58 % 0.00 in 0.00 W/m2
21:32 81.3 °F 65.1 °F 29.67 in Calm   5.0 mph 58 % 0.00 in 0.00 W/m2
21:37 81.2 °F 65.5 °F 29.67 in North 2.0 mph 2.0 mph 59 % 0.00 in 0.00 W/m2
21:42 81.1 °F 65.4 °F 29.67 in Calm     59 % 0.00 in 0.00 W/m2
21:47 80.9 °F 65.7 °F 29.68 in Calm   5.0 mph 60 % 0.00 in 0.00 W/m2
21:52 80.7 °F 65.5 °F 29.68 in Calm   5.0 mph 60 % 0.00 in 0.00 W/m2
21:57 80.7 °F 65.5 °F 29.68 in Calm   1.0 mph 60 % 0.00 in 0.00 W/m2
22:02 80.6 °F 65.4 °F 29.68 in Calm   1.0 mph 60 % 0.00 in 0.00 W/m2
22:07 80.5 °F 65.3 °F 29.68 in Calm   3.0 mph 60 % 0.00 in 0.00 W/m2
22:12 80.5 °F 65.3 °F 29.68 in Calm   1.0 mph 60 % 0.00 in 0.00 W/m2
22:17 80.4 °F 65.3 °F 29.68 in Calm   3.0 mph 60 % 0.00 in 0.00 W/m2
22:22 80.4 °F 65.3 °F 29.68 in Calm   1.0 mph 60 % 0.00 in 0.00 W/m2
22:27 80.3 °F 65.2 °F 29.68 in Calm   5.0 mph 60 % 0.00 in 0.00 W/m2
22:32 80.2 °F 65.1 °F 29.68 in ENE 4.0 mph 6.0 mph 60 % 0.00 in 0.00 W/m2
22:37 80.2 °F 65.1 °F 29.68 in Calm   1.0 mph 60 % 0.00 in 0.00 W/m2
22:42 80.1 °F 65.0 °F 29.68 in ENE 1.0 mph 6.0 mph 60 % 0.00 in 0.00 W/m2
22:47 80.0 °F 64.9 °F 29.68 in East 1.0 mph 13.0 mph 60 % 0.00 in 0.00 W/m2
22:52 79.9 °F 64.3 °F 29.68 in East 5.0 mph 7.0 mph 59 % 0.00 in 0.00 W/m2
22:57 79.8 °F 64.2 °F 29.68 in Calm   11.0 mph 59 % 0.00 in 0.00 W/m2
22:58 79.8 °F 64.2 °F 29.68 in Calm   11.0 mph 59 % 0.00 in 0.00 W/m2
23:03 79.7 °F 64.1 °F 29.68 in East 5.0 mph 8.0 mph 59 % 0.00 in 0.00 W/m2
23:08 79.6 °F 64.5 °F 29.68 in East 1.0 mph 7.0 mph 60 % 0.00 in 0.00 W/m2
23:13 79.6 °F 64.0 °F 29.68 in Calm   7.0 mph 59 % 0.00 in 0.00 W/m2
23:18 79.5 °F 63.9 °F 29.68 in Calm   8.0 mph 59 % 0.00 in 0.00 W/m2
23:23 79.4 °F 63.3 °F 29.68 in East 5.0 mph 6.0 mph 58 % 0.00 in 0.00 W/m2
23:28 79.4 °F 63.8 °F 29.68 in East 2.0 mph 8.0 mph 59 % 0.00 in 0.00 W/m2
23:33 79.3 °F 63.3 °F 29.68 in East 1.0 mph 6.0 mph 58 % 0.00 in 0.00 W/m2
23:38 79.2 °F 63.7 °F 29.68 in East 4.0 mph 6.0 mph 59 % 0.00 in 0.00 W/m2
23:43 79.0 °F 63.5 °F 29.68 in Calm   6.0 mph 59 % 0.00 in 0.00 W/m2
23:48 78.8 °F 63.3 °F 29.68 in Calm   8.0 mph 59 % 0.00 in 0.00 W/m2
23:53 78.6 °F 63.1 °F 29.68 in Calm   6.0 mph 59 % 0.00 in 0.00 W/m2
23:58 78.5 °F 63.0 °F 29.68 in Calm     59 % 0.00 in 0.00 W/m2
Juneau County Weather
Compliments of Weather Underground - 4.5 mb
 WU-history PHP script courtesy of   Juneau County Weather.
powered by Cumulus v1.9.3 (1059)
Ambient Weather VWS v14.00
Top Contact Website Map Copyright © 2007 - 2018 Foresthillweather.com Never base important decisions on this or any weather information obtained from the Internet